Location: Barcelona
(41.3830°N, 2.1830°E)
Time: 11:52:33
(UTC+01:00)

ISS - Pass Details

Date: 23 October 2020
Orbit: 417 x 420 km, 51.6° (Epoch: 29 October)

Event Time Altitude Azimuth Distance (km) Brightness Sun altitude
Exits shadow 06:49:35 10° 201° (SSW) 1,506 -1.1 -16.2°
Reaches altitude 10° 06:49:38 10° 201° (SSW) 1,486 -1.2 -16.2°
Maximum altitude 06:52:38 32° 136° (SE) 744 -2.1 -15.6°
Drops below altitude 10° 06:55:40 10° 72° (ENE) 1,495 0.2 -15.1°
Sets 06:57:54 0° 62° (ENE) 2,362 1.1 -14.6°
